Tracking 25689 objects as of 7-Jul-2022
HD Live streaming from Space Station
objects crossing your sky now

FENGYUN 1C DEB

Track FENGYUN 1C DEB now!
10-day predictions


NORAD ID: 30015
Int'l Code: 1999-025MQ
Perigee: 788.1 km
Apogee: 851.1 km
Inclination: 99.1 °
Period: 101.1 minutes
Semi major axis: 7190 km
RCS: 0.039 m2 (small)
Launch date: May 10, 1999
Source: People's Republic of China (PRC)
Launch site: Taiyaun Space Center, China (TSC)

Note: This is SATELLITE DEBRIS
aabbcc
Your satellite tracking list
Your tracking list is empty




NASA's NSSDC Master Catalog

Two Line Element Set (TLE):
1 30015U 99025MQ  22187.78491817  .00000492  00000-0  23342-3 0  9991
2 30015  99.1232 113.7503 0043784 128.3977 256.8557 14.23810930802762
Source of the keplerian elements: AFSPC